Year,Month,Day,Hour,Minute,Value (Times are PST for temperature in C)
2005,06,19,00,00,14.90
2005,06,19,00,01,14.90
2005,06,19,00,02,14.90
2005,06,19,00,03,14.90
2005,06,19,00,04,14.90
2005,06,19,00,05,14.90
2005,06,19,00,06,14.80
2005,06,19,00,07,14.80
2005,06,19,00,08,14.80
2005,06,19,00,09,14.80
2005,06,19,00,10,14.80
2005,06,19,00,11,14.80
2005,06,19,00,12,14.80
2005,06,19,00,13,14.80
2005,06,19,00,14,14.80
2005,06,19,00,15,14.80
2005,06,19,00,16,14.70
2005,06,19,00,17,14.70
2005,06,19,00,18,14.70
2005,06,19,00,19,14.70
2005,06,19,00,20,14.70
2005,06,19,00,21,14.60
2005,06,19,00,22,14.60
2005,06,19,00,23,14.60
2005,06,19,00,24,14.60
2005,06,19,00,25,14.60
2005,06,19,00,26,14.50
2005,06,19,00,27,14.50
2005,06,19,00,28,14.50
2005,06,19,00,29,14.50
2005,06,19,00,30,14.40
2005,06,19,00,31,14.40
2005,06,19,00,32,14.40
2005,06,19,00,33,14.40
2005,06,19,00,34,14.40
2005,06,19,00,35,14.40
2005,06,19,00,36,14.30
2005,06,19,00,37,14.30
2005,06,19,00,38,14.30
2005,06,19,00,39,14.30
2005,06,19,00,40,14.30
2005,06,19,00,41,14.30
2005,06,19,00,42,14.20
2005,06,19,00,43,14.20
2005,06,19,00,44,14.20
2005,06,19,00,45,14.20
2005,06,19,00,46,14.20
2005,06,19,00,47,14.20
2005,06,19,00,48,14.20
2005,06,19,00,49,14.20
2005,06,19,00,50,14.20
2005,06,19,00,51,14.20
2005,06,19,00,52,14.20
2005,06,19,00,53,14.20
2005,06,19,00,54,14.20
2005,06,19,00,55,14.20
2005,06,19,00,56,14.20
2005,06,19,00,57,14.20
2005,06,19,00,58,14.20
2005,06,19,00,59,14.20
2005,06,19,01,00,14.20
2005,06,19,01,01,14.20
2005,06,19,01,02,14.20
2005,06,19,01,03,14.20
2005,06,19,01,04,14.20
2005,06,19,01,05,14.20
2005,06,19,01,06,14.20
2005,06,19,01,07,14.20
2005,06,19,01,08,14.20
2005,06,19,01,09,14.20
2005,06,19,01,10,14.10
2005,06,19,01,11,14.10
2005,06,19,01,12,14.10
2005,06,19,01,13,14.10
2005,06,19,01,14,14.10
2005,06,19,01,15,14.10
2005,06,19,01,16,14.10
2005,06,19,01,17,14.10
2005,06,19,01,18,14.10
2005,06,19,01,19,14.10
2005,06,19,01,20,14.10
2005,06,19,01,21,14.10
2005,06,19,01,22,14.00
2005,06,19,01,23,14.00
2005,06,19,01,24,14.00
2005,06,19,01,25,14.00
2005,06,19,01,26,14.00
2005,06,19,01,27,14.00
2005,06,19,01,28,14.00
2005,06,19,01,29,14.00
2005,06,19,01,30,14.00
2005,06,19,01,31,14.00
2005,06,19,01,32,14.00
2005,06,19,01,33,14.00
2005,06,19,01,34,14.00
2005,06,19,01,35,14.00
2005,06,19,01,36,14.00
2005,06,19,01,37,14.00
2005,06,19,01,38,13.90
2005,06,19,01,39,13.90
2005,06,19,01,40,13.90
2005,06,19,01,41,13.90
2005,06,19,01,42,13.90
2005,06,19,01,43,13.90
2005,06,19,01,44,13.90
2005,06,19,01,45,13.90
2005,06,19,01,46,13.90
2005,06,19,01,47,13.90
2005,06,19,01,48,13.90
2005,06,19,01,49,13.90
2005,06,19,01,50,13.90
2005,06,19,01,51,13.90
2005,06,19,01,52,13.90
2005,06,19,01,53,13.90
2005,06,19,01,54,13.90
2005,06,19,01,55,13.90
2005,06,19,01,56,13.90
2005,06,19,01,57,13.90
2005,06,19,01,58,13.90
2005,06,19,01,59,13.90
2005,06,19,02,00,13.90
2005,06,19,02,01,13.90
2005,06,19,02,02,13.90
2005,06,19,02,03,13.90
2005,06,19,02,04,13.90
2005,06,19,02,05,13.90
2005,06,19,02,06,13.90
2005,06,19,02,07,13.90
2005,06,19,02,08,13.90
2005,06,19,02,09,13.90
2005,06,19,02,10,13.90
2005,06,19,02,11,13.90
2005,06,19,02,12,13.90
2005,06,19,02,13,13.90
2005,06,19,02,14,13.90
2005,06,19,02,15,13.90
2005,06,19,02,16,13.90
2005,06,19,02,17,13.90
2005,06,19,02,18,13.90
2005,06,19,02,19,13.90
2005,06,19,02,20,13.90
2005,06,19,02,21,13.90
2005,06,19,02,22,13.90
2005,06,19,02,23,13.90
2005,06,19,02,24,13.90
2005,06,19,02,25,13.90
2005,06,19,02,26,13.90
2005,06,19,02,27,13.80
2005,06,19,02,28,13.70
2005,06,19,02,29,13.70
2005,06,19,02,30,13.70
2005,06,19,02,31,13.70
2005,06,19,02,32,13.70
2005,06,19,02,33,13.60
2005,06,19,02,34,13.60
2005,06,19,02,35,13.60
2005,06,19,02,36,13.50
2005,06,19,02,37,13.50
2005,06,19,02,38,13.50
2005,06,19,02,39,13.40
2005,06,19,02,40,13.40
2005,06,19,02,41,13.40
2005,06,19,02,42,13.40
2005,06,19,02,43,13.30
2005,06,19,02,44,13.30
2005,06,19,02,45,13.30
2005,06,19,02,46,13.20
2005,06,19,02,47,13.20
2005,06,19,02,48,13.20
2005,06,19,02,49,13.10
2005,06,19,02,50,13.10
2005,06,19,02,51,13.10
2005,06,19,02,52,13.00
2005,06,19,02,53,13.00
2005,06,19,02,54,13.00
2005,06,19,02,55,12.90
2005,06,19,02,56,12.90
2005,06,19,02,57,12.90
2005,06,19,02,58,12.90
2005,06,19,02,59,12.90
2005,06,19,03,00,12.90
2005,06,19,03,01,12.80
2005,06,19,03,02,12.80
2005,06,19,03,03,12.80
2005,06,19,03,04,12.80
2005,06,19,03,05,12.80
2005,06,19,03,06,12.80
2005,06,19,03,07,12.80
2005,06,19,03,08,12.80
2005,06,19,03,09,12.80
2005,06,19,03,10,12.80
2005,06,19,03,11,12.80
2005,06,19,03,12,12.80
2005,06,19,03,13,12.80
2005,06,19,03,14,12.80
2005,06,19,03,15,12.80
2005,06,19,03,16,12.80
2005,06,19,03,17,12.70
2005,06,19,03,18,12.70
2005,06,19,03,19,12.70
2005,06,19,03,20,12.70
2005,06,19,03,21,12.70
2005,06,19,03,22,12.70
2005,06,19,03,23,12.70
2005,06,19,03,24,12.70
2005,06,19,03,25,12.70
2005,06,19,03,26,12.70
2005,06,19,03,27,12.70
2005,06,19,03,28,12.70
2005,06,19,03,29,12.70
2005,06,19,03,30,12.70
2005,06,19,03,31,12.70
2005,06,19,03,32,12.70
2005,06,19,03,33,12.70
2005,06,19,03,34,12.60
2005,06,19,03,35,12.60
2005,06,19,03,36,12.60
2005,06,19,03,37,12.60
2005,06,19,03,38,12.60
2005,06,19,03,39,12.60
2005,06,19,03,40,12.60
2005,06,19,03,41,12.60
2005,06,19,03,42,12.60
2005,06,19,03,43,12.60
2005,06,19,03,44,12.60
2005,06,19,03,45,12.60
2005,06,19,03,46,12.60
2005,06,19,03,47,12.60
2005,06,19,03,48,12.60
2005,06,19,03,49,12.60
2005,06,19,03,50,12.60
2005,06,19,03,51,12.60
2005,06,19,03,52,12.50
2005,06,19,03,53,12.50
2005,06,19,03,54,12.50
2005,06,19,03,55,12.50
2005,06,19,03,56,12.50
2005,06,19,03,57,12.50
2005,06,19,03,58,12.50
2005,06,19,03,59,12.50
2005,06,19,04,00,12.50
2005,06,19,04,01,12.50
2005,06,19,04,02,12.50
2005,06,19,04,03,12.50
2005,06,19,04,04,12.50
2005,06,19,04,05,12.50
2005,06,19,04,06,12.50
2005,06,19,04,07,12.50
2005,06,19,04,08,12.50
2005,06,19,04,09,12.50
2005,06,19,04,10,12.50
2005,06,19,04,11,12.50
2005,06,19,04,12,12.50
2005,06,19,04,13,12.50
2005,06,19,04,14,12.50
2005,06,19,04,15,12.50
2005,06,19,04,16,12.50
2005,06,19,04,17,12.50
2005,06,19,04,18,12.50
2005,06,19,04,19,12.50
2005,06,19,04,20,12.60
2005,06,19,04,21,12.60
2005,06,19,04,22,12.60
2005,06,19,04,23,12.60
2005,06,19,04,24,12.60
2005,06,19,04,25,12.60
2005,06,19,04,26,12.60
2005,06,19,04,27,12.60
2005,06,19,04,28,12.60
2005,06,19,04,29,12.60
2005,06,19,04,30,12.60
2005,06,19,04,31,12.60
2005,06,19,04,32,12.60
2005,06,19,04,33,12.60
2005,06,19,04,34,12.60
2005,06,19,04,35,12.60
2005,06,19,04,36,12.60
2005,06,19,04,37,12.60
2005,06,19,04,38,12.60
2005,06,19,04,39,12.60
2005,06,19,04,40,12.60
2005,06,19,04,41,12.60
2005,06,19,04,42,12.60
2005,06,19,04,43,12.60
2005,06,19,04,44,12.60
2005,06,19,04,45,12.60
2005,06,19,04,46,12.60
2005,06,19,04,47,12.60
2005,06,19,04,48,12.60
2005,06,19,04,49,12.60
2005,06,19,04,50,12.60
2005,06,19,04,51,12.60
2005,06,19,04,52,12.60
2005,06,19,04,53,12.60
2005,06,19,04,54,12.50
2005,06,19,04,55,12.50
2005,06,19,04,56,12.50
2005,06,19,04,57,12.50
2005,06,19,04,58,12.50
2005,06,19,04,59,12.50
2005,06,19,05,00,12.50
2005,06,19,05,01,12.50
2005,06,19,05,02,12.50
2005,06,19,05,03,12.50
2005,06,19,05,04,12.50
2005,06,19,05,05,12.50
2005,06,19,05,06,12.50
2005,06,19,05,07,12.50
2005,06,19,05,08,12.50
2005,06,19,05,09,12.50
2005,06,19,05,10,12.60
2005,06,19,05,11,12.60
2005,06,19,05,12,12.60
2005,06,19,05,13,12.60
2005,06,19,05,14,12.60
2005,06,19,05,15,12.60
2005,06,19,05,16,12.60
2005,06,19,05,17,12.60
2005,06,19,05,18,12.60
2005,06,19,05,19,12.60
2005,06,19,05,20,12.60
2005,06,19,05,21,12.60
2005,06,19,05,22,12.60
2005,06,19,05,23,12.60
2005,06,19,05,24,12.60
2005,06,19,05,25,12.60
2005,06,19,05,26,12.60
2005,06,19,05,27,12.60
2005,06,19,05,28,12.60
2005,06,19,05,29,12.60
2005,06,19,05,30,12.60
2005,06,19,05,31,12.60
2005,06,19,05,32,12.60
2005,06,19,05,33,12.60
2005,06,19,05,34,12.60
2005,06,19,05,35,12.60
2005,06,19,05,36,12.60
2005,06,19,05,37,12.60
2005,06,19,05,38,12.60
2005,06,19,05,39,12.60
2005,06,19,05,40,12.60
2005,06,19,05,41,12.60
2005,06,19,05,42,12.60
2005,06,19,05,43,12.60
2005,06,19,05,44,12.60
2005,06,19,05,45,12.60
2005,06,19,05,46,12.60
2005,06,19,05,47,12.60
2005,06,19,05,48,12.60
2005,06,19,05,49,12.60
2005,06,19,05,50,12.60
2005,06,19,05,51,12.60
2005,06,19,05,52,12.60
2005,06,19,05,53,12.70
2005,06,19,05,54,12.70
2005,06,19,05,55,12.70
2005,06,19,05,56,12.70
2005,06,19,05,57,12.70
2005,06,19,05,58,12.70
2005,06,19,05,59,12.70
2005,06,19,06,00,12.70
2005,06,19,06,01,12.70
2005,06,19,06,02,12.70
2005,06,19,06,03,12.70
2005,06,19,06,04,12.70
2005,06,19,06,05,12.70
2005,06,19,06,06,12.70
2005,06,19,06,07,12.70
2005,06,19,06,08,12.70
2005,06,19,06,09,12.70
2005,06,19,06,10,12.70
2005,06,19,06,11,12.70
2005,06,19,06,12,12.80
2005,06,19,06,13,12.80
2005,06,19,06,14,12.80
2005,06,19,06,15,12.80
2005,06,19,06,16,12.80
2005,06,19,06,17,12.90
2005,06,19,06,18,12.90
2005,06,19,06,19,13.00
2005,06,19,06,20,13.10
2005,06,19,06,21,13.10
2005,06,19,06,22,13.20
2005,06,19,06,23,13.20
2005,06,19,06,24,13.30
2005,06,19,06,25,13.30
2005,06,19,06,26,13.40
2005,06,19,06,27,13.40
2005,06,19,06,28,13.50
2005,06,19,06,29,13.60
2005,06,19,06,30,13.70
2005,06,19,06,31,13.70
2005,06,19,06,32,13.80
2005,06,19,06,33,13.90
2005,06,19,06,34,14.00
2005,06,19,06,35,14.10
2005,06,19,06,36,14.20
2005,06,19,06,37,14.20
2005,06,19,06,38,14.30
2005,06,19,06,39,14.40
2005,06,19,06,40,14.40
2005,06,19,06,41,14.50
2005,06,19,06,42,14.50
2005,06,19,06,43,14.60
2005,06,19,06,44,14.60
2005,06,19,06,45,14.70
2005,06,19,06,46,14.70
2005,06,19,06,47,14.70
2005,06,19,06,48,14.80
2005,06,19,06,49,14.80
2005,06,19,06,50,14.90
2005,06,19,06,51,14.90
2005,06,19,06,52,15.00
2005,06,19,06,53,15.10
2005,06,19,06,54,15.20
2005,06,19,06,55,15.30
2005,06,19,06,56,15.40
2005,06,19,06,57,15.50
2005,06,19,06,58,15.60
2005,06,19,06,59,15.70
2005,06,19,07,00,15.80
2005,06,19,07,01,15.90
2005,06,19,07,02,16.10
2005,06,19,07,03,16.10
2005,06,19,07,04,16.20
2005,06,19,07,05,16.20
2005,06,19,07,06,16.20
2005,06,19,07,07,16.30
2005,06,19,07,08,16.40
2005,06,19,07,09,16.40
2005,06,19,07,10,16.50
2005,06,19,07,11,16.60
2005,06,19,07,12,16.70
2005,06,19,07,13,16.70
2005,06,19,07,14,16.70
2005,06,19,07,15,16.80
2005,06,19,07,16,16.90
2005,06,19,07,17,16.90
2005,06,19,07,18,16.90
2005,06,19,07,19,17.00
2005,06,19,07,20,17.00
2005,06,19,07,21,17.00
2005,06,19,07,22,17.00
2005,06,19,07,23,17.00
2005,06,19,07,24,17.00
2005,06,19,07,25,17.00
2005,06,19,07,26,17.00
2005,06,19,07,27,17.10
2005,06,19,07,28,17.20
2005,06,19,07,29,17.20
2005,06,19,07,30,17.30
2005,06,19,07,31,17.30
2005,06,19,07,32,17.30
2005,06,19,07,33,17.40
2005,06,19,07,34,17.50
2005,06,19,07,35,17.50
2005,06,19,07,36,17.60
2005,06,19,07,37,17.60
2005,06,19,07,38,17.50
2005,06,19,07,39,17.50
2005,06,19,07,40,17.40
2005,06,19,07,41,17.30
2005,06,19,07,42,17.30
2005,06,19,07,43,17.30
2005,06,19,07,44,17.20
2005,06,19,07,45,17.20
2005,06,19,07,46,17.10
2005,06,19,07,47,17.10
2005,06,19,07,48,17.20
2005,06,19,07,49,17.10
2005,06,19,07,50,17.10
2005,06,19,07,51,17.00
2005,06,19,07,52,17.00
2005,06,19,07,53,17.00
2005,06,19,07,54,17.00
2005,06,19,07,55,16.90
2005,06,19,07,56,16.90
2005,06,19,07,57,16.70
2005,06,19,07,58,16.70
2005,06,19,07,59,16.70
2005,06,19,08,00,16.70
2005,06,19,08,01,16.70
2005,06,19,08,02,16.80
2005,06,19,08,03,16.90
2005,06,19,08,04,16.90
2005,06,19,08,05,17.00
2005,06,19,08,06,17.00
2005,06,19,08,07,17.10
2005,06,19,08,08,17.10
2005,06,19,08,09,17.10
2005,06,19,08,10,17.20
2005,06,19,08,11,17.20
2005,06,19,08,12,17.20
2005,06,19,08,13,17.30
2005,06,19,08,14,17.30
2005,06,19,08,15,17.30
2005,06,19,08,16,17.40
2005,06,19,08,17,17.30
2005,06,19,08,18,17.30
2005,06,19,08,19,17.30
2005,06,19,08,20,17.30
2005,06,19,08,21,17.30
2005,06,19,08,22,17.20
2005,06,19,08,23,17.20
2005,06,19,08,24,17.20
2005,06,19,08,25,17.30
2005,06,19,08,26,17.30
2005,06,19,08,27,17.30
2005,06,19,08,28,17.40
2005,06,19,08,29,17.30
2005,06,19,08,30,17.30
2005,06,19,08,31,17.30
2005,06,19,08,32,17.30
2005,06,19,08,33,17.40
2005,06,19,08,34,17.60
2005,06,19,08,35,17.60
2005,06,19,08,36,17.60
2005,06,19,08,37,17.70
2005,06,19,08,38,17.80
2005,06,19,08,39,17.90
2005,06,19,08,40,17.90
2005,06,19,08,41,17.90
2005,06,19,08,42,17.90
2005,06,19,08,43,18.00
2005,06,19,08,44,18.10
2005,06,19,08,45,17.90
2005,06,19,08,46,17.70
2005,06,19,08,47,17.60
2005,06,19,08,48,17.60
2005,06,19,08,49,17.70
2005,06,19,08,50,17.70
2005,06,19,08,51,17.70
2005,06,19,08,52,17.80
2005,06,19,08,53,17.80
2005,06,19,08,54,17.80
2005,06,19,08,55,17.90
2005,06,19,08,56,18.00
2005,06,19,08,57,18.10
2005,06,19,08,58,18.10
2005,06,19,08,59,18.10
2005,06,19,09,00,18.10
2005,06,19,09,01,18.20
2005,06,19,09,02,18.30
2005,06,19,09,03,18.30
2005,06,19,09,04,18.30
2005,06,19,09,05,18.40
2005,06,19,09,06,18.40
2005,06,19,09,07,18.40
2005,06,19,09,08,18.40
2005,06,19,09,09,18.40
2005,06,19,09,10,18.40
2005,06,19,09,11,18.50
2005,06,19,09,12,18.60
2005,06,19,09,13,18.70
2005,06,19,09,14,18.70
2005,06,19,09,15,18.70
2005,06,19,09,16,18.70
2005,06,19,09,17,18.60
2005,06,19,09,18,18.50
2005,06,19,09,19,18.30
2005,06,19,09,20,18.20
2005,06,19,09,21,18.30
2005,06,19,09,22,18.20
2005,06,19,09,23,18.00
2005,06,19,09,24,17.90
2005,06,19,09,25,17.70
2005,06,19,09,26,17.70
2005,06,19,09,27,17.70
2005,06,19,09,28,17.60
2005,06,19,09,29,17.60
2005,06,19,09,30,17.70
2005,06,19,09,31,17.60
2005,06,19,09,32,17.50
2005,06,19,09,33,17.30
2005,06,19,09,34,17.30
2005,06,19,09,35,17.20
2005,06,19,09,36,17.20
2005,06,19,09,37,17.20
2005,06,19,09,38,17.30
2005,06,19,09,39,17.30
2005,06,19,09,40,17.10
2005,06,19,09,41,17.10
2005,06,19,09,42,17.00
2005,06,19,09,43,17.10
2005,06,19,09,44,17.30
2005,06,19,09,45,17.50
2005,06,19,09,46,17.60
2005,06,19,09,47,17.80
2005,06,19,09,48,17.90
2005,06,19,09,49,17.90
2005,06,19,09,50,18.10
2005,06,19,09,51,18.20
2005,06,19,09,52,18.20
2005,06,19,09,53,18.30
2005,06,19,09,54,18.20
2005,06,19,09,55,18.20
2005,06,19,09,56,18.20
2005,06,19,09,57,18.30
2005,06,19,09,58,18.30
2005,06,19,09,59,18.30
2005,06,19,10,00,18.40
2005,06,19,10,01,18.30
2005,06,19,10,02,18.20
2005,06,19,10,03,18.20
2005,06,19,10,04,18.10
2005,06,19,10,05,17.90
2005,06,19,10,06,17.80
2005,06,19,10,07,17.80
2005,06,19,10,08,17.80
2005,06,19,10,09,17.90
2005,06,19,10,10,17.80
2005,06,19,10,11,17.80
2005,06,19,10,12,17.70
2005,06,19,10,13,17.70
2005,06,19,10,14,17.70
2005,06,19,10,15,17.80
2005,06,19,10,16,17.90
2005,06,19,10,17,17.90
2005,06,19,10,18,18.10
2005,06,19,10,19,18.20
2005,06,19,10,20,18.20
2005,06,19,10,21,18.30
2005,06,19,10,22,18.40
2005,06,19,10,23,18.40
2005,06,19,10,24,18.40
2005,06,19,10,25,18.40
2005,06,19,10,26,18.30
2005,06,19,10,27,18.20
2005,06,19,10,28,18.20
2005,06,19,10,29,18.10
2005,06,19,10,30,18.00
2005,06,19,10,31,17.90
2005,06,19,10,32,17.90
2005,06,19,10,33,17.90
2005,06,19,10,34,17.90
2005,06,19,10,35,17.90
2005,06,19,10,36,17.90
2005,06,19,10,37,17.90
2005,06,19,10,38,17.90
2005,06,19,10,39,17.90
2005,06,19,10,40,17.90
2005,06,19,10,41,17.90
2005,06,19,10,42,17.90
2005,06,19,10,43,17.90
2005,06,19,10,44,18.00
2005,06,19,10,45,18.10
2005,06,19,10,46,18.10
2005,06,19,10,47,18.10
2005,06,19,10,48,18.20
2005,06,19,10,49,18.10
2005,06,19,10,50,18.10
2005,06,19,10,51,18.10
2005,06,19,10,52,18.20
2005,06,19,10,53,18.20
2005,06,19,10,54,18.30
2005,06,19,10,55,18.30
2005,06,19,10,56,18.30
2005,06,19,10,57,18.40
2005,06,19,10,58,18.40
2005,06,19,10,59,18.50
2005,06,19,11,00,18.50
2005,06,19,11,01,18.60
2005,06,19,11,02,18.60
2005,06,19,11,03,18.70
2005,06,19,11,04,18.80
2005,06,19,11,05,18.80
2005,06,19,11,06,18.80
2005,06,19,11,07,18.70
2005,06,19,11,08,18.80
2005,06,19,11,09,18.80
2005,06,19,11,10,18.80
2005,06,19,11,11,18.80
2005,06,19,11,12,18.90
2005,06,19,11,13,18.90
2005,06,19,11,14,18.90
2005,06,19,11,15,19.00
2005,06,19,11,16,19.10
2005,06,19,11,17,19.10
2005,06,19,11,18,19.20
2005,06,19,11,19,19.30
2005,06,19,11,20,19.40
2005,06,19,11,21,19.40
2005,06,19,11,22,19.50
2005,06,19,11,23,19.60
2005,06,19,11,24,19.70
2005,06,19,11,25,19.70
2005,06,19,11,26,19.70
2005,06,19,11,27,19.70
2005,06,19,11,28,19.60
2005,06,19,11,29,19.60
2005,06,19,11,30,19.60
2005,06,19,11,31,19.60
2005,06,19,11,32,19.60
2005,06,19,11,33,19.70
2005,06,19,11,34,19.70
2005,06,19,11,35,19.70
2005,06,19,11,36,19.70
2005,06,19,11,37,19.70
2005,06,19,11,38,19.70
2005,06,19,11,39,19.70
2005,06,19,11,40,19.70
2005,06,19,11,41,19.60
2005,06,19,11,42,19.50
2005,06,19,11,43,19.50
2005,06,19,11,44,19.40
2005,06,19,11,45,19.40
2005,06,19,11,46,19.40
2005,06,19,11,47,19.40
2005,06,19,11,48,19.40
2005,06,19,11,49,19.50
2005,06,19,11,50,19.50
2005,06,19,11,51,19.50
2005,06,19,11,52,19.50
2005,06,19,11,53,19.50
2005,06,19,11,54,19.50
2005,06,19,11,55,19.60
2005,06,19,11,56,19.60
2005,06,19,11,57,19.60
2005,06,19,11,58,19.60
2005,06,19,11,59,19.70
2005,06,19,12,00,19.70
2005,06,19,12,01,19.60
2005,06,19,12,02,19.60
2005,06,19,12,03,19.60
2005,06,19,12,04,19.50
2005,06,19,12,05,19.60
2005,06,19,12,06,19.60
2005,06,19,12,07,19.50
2005,06,19,12,08,19.50
2005,06,19,12,09,19.50
2005,06,19,12,10,19.40
2005,06,19,12,11,19.40
2005,06,19,12,12,19.40
2005,06,19,12,13,19.40
2005,06,19,12,14,19.40
2005,06,19,12,15,19.50
2005,06,19,12,16,19.50
2005,06,19,12,17,19.50
2005,06,19,12,18,19.50
2005,06,19,12,19,19.40
2005,06,19,12,20,19.40
2005,06,19,12,21,19.40
2005,06,19,12,22,19.40
2005,06,19,12,23,19.40
2005,06,19,12,24,19.50
2005,06,19,12,25,19.50
2005,06,19,12,26,19.50
2005,06,19,12,27,19.50
2005,06,19,12,28,19.50
2005,06,19,12,29,19.40
2005,06,19,12,30,19.40
2005,06,19,12,31,19.40
2005,06,19,12,32,19.50
2005,06,19,12,33,19.50
2005,06,19,12,34,19.60
2005,06,19,12,35,19.70
2005,06,19,12,36,19.80
2005,06,19,12,37,19.80
2005,06,19,12,38,19.90
2005,06,19,12,39,20.00
2005,06,19,12,40,20.10
2005,06,19,12,41,20.20
2005,06,19,12,42,20.20
2005,06,19,12,43,20.20
2005,06,19,12,44,20.20
2005,06,19,12,45,20.20
2005,06,19,12,46,20.20
2005,06,19,12,47,20.20
2005,06,19,12,48,20.30
2005,06,19,12,49,20.40
2005,06,19,12,50,20.50
2005,06,19,12,51,20.50
2005,06,19,12,52,20.40
2005,06,19,12,53,20.30
2005,06,19,12,54,20.20
2005,06,19,12,55,20.20
2005,06,19,12,56,20.30
2005,06,19,12,57,20.30
2005,06,19,12,58,20.30
2005,06,19,12,59,20.30
2005,06,19,13,00,20.30
2005,06,19,13,01,20.40
2005,06,19,13,02,20.50
2005,06,19,13,03,20.60
2005,06,19,13,04,20.70
2005,06,19,13,05,20.80
2005,06,19,13,06,20.90
2005,06,19,13,07,21.00
2005,06,19,13,08,21.00
2005,06,19,13,09,21.10
2005,06,19,13,10,21.00
2005,06,19,13,11,21.00
2005,06,19,13,12,21.00
2005,06,19,13,13,21.00
2005,06,19,13,14,20.90
2005,06,19,13,15,20.90
2005,06,19,13,16,20.90
2005,06,19,13,17,21.00
2005,06,19,13,18,21.00
2005,06,19,13,19,21.10
2005,06,19,13,20,21.10
2005,06,19,13,21,21.20
2005,06,19,13,22,21.30
2005,06,19,13,23,21.30
2005,06,19,13,24,21.30
2005,06,19,13,25,21.40
2005,06,19,13,26,21.40
2005,06,19,13,27,21.50
2005,06,19,13,28,21.60
2005,06,19,13,29,21.70
2005,06,19,13,30,21.80
2005,06,19,13,31,21.80
2005,06,19,13,32,21.80
2005,06,19,13,33,21.70
2005,06,19,13,34,21.70
2005,06,19,13,35,21.70
2005,06,19,13,36,21.70
2005,06,19,13,37,21.70
2005,06,19,13,38,21.70
2005,06,19,13,39,21.70
2005,06,19,13,40,21.80
2005,06,19,13,41,21.80
2005,06,19,13,42,21.70
2005,06,19,13,43,21.70
2005,06,19,13,44,21.80
2005,06,19,13,45,21.90
2005,06,19,13,46,22.00
2005,06,19,13,47,22.00
2005,06,19,13,48,21.90
2005,06,19,13,49,21.80
2005,06,19,13,50,21.70
2005,06,19,13,51,21.70
2005,06,19,13,52,21.70
2005,06,19,13,53,21.70
2005,06,19,13,54,21.90
2005,06,19,13,55,22.00
2005,06,19,13,56,21.90
2005,06,19,13,57,21.70
2005,06,19,13,58,21.70
2005,06,19,13,59,21.70
2005,06,19,14,00,21.70
2005,06,19,14,01,21.90
2005,06,19,14,02,22.00
2005,06,19,14,03,22.00
2005,06,19,14,04,21.90
2005,06,19,14,05,21.80
2005,06,19,14,06,21.70
2005,06,19,14,07,21.60
2005,06,19,14,08,21.70
2005,06,19,14,09,21.70
2005,06,19,14,10,21.80
2005,06,19,14,11,21.80
2005,06,19,14,12,21.90
2005,06,19,14,13,21.90
2005,06,19,14,14,21.70
2005,06,19,14,15,21.60
2005,06,19,14,16,21.60
2005,06,19,14,17,21.60
2005,06,19,14,18,21.70
2005,06,19,14,19,21.80
2005,06,19,14,20,21.90
2005,06,19,14,21,22.00
2005,06,19,14,22,22.10
2005,06,19,14,23,22.30
2005,06,19,14,24,22.20
2005,06,19,14,25,22.20
2005,06,19,14,26,22.20
2005,06,19,14,27,22.20
2005,06,19,14,28,22.20
2005,06,19,14,29,22.10
2005,06,19,14,30,22.10
2005,06,19,14,31,22.10
2005,06,19,14,32,22.10
2005,06,19,14,33,22.10
2005,06,19,14,34,22.10
2005,06,19,14,35,22.00
2005,06,19,14,36,22.00
2005,06,19,14,37,22.00
2005,06,19,14,38,22.00
2005,06,19,14,39,21.90
2005,06,19,14,40,21.90
2005,06,19,14,41,21.90
2005,06,19,14,42,22.00
2005,06,19,14,43,22.00
2005,06,19,14,44,22.00
2005,06,19,14,45,21.80
2005,06,19,14,46,21.70
2005,06,19,14,47,21.70
2005,06,19,14,48,21.80
2005,06,19,14,49,21.90
2005,06,19,14,50,21.90
2005,06,19,14,51,21.90
2005,06,19,14,52,21.90
2005,06,19,14,53,21.80
2005,06,19,14,54,21.80
2005,06,19,14,55,21.80
2005,06,19,14,56,21.80
2005,06,19,14,57,21.80
2005,06,19,14,58,21.90
2005,06,19,14,59,21.90
2005,06,19,15,00,21.90
2005,06,19,15,01,21.80
2005,06,19,15,02,21.80
2005,06,19,15,03,21.80
2005,06,19,15,04,21.80
2005,06,19,15,05,21.80
2005,06,19,15,06,21.90
2005,06,19,15,07,21.90
2005,06,19,15,08,21.90
2005,06,19,15,09,22.00
2005,06,19,15,10,22.00
2005,06,19,15,11,22.00
2005,06,19,15,12,22.00
2005,06,19,15,13,22.00
2005,06,19,15,14,22.00
2005,06,19,15,15,22.10
2005,06,19,15,16,22.10
2005,06,19,15,17,22.10
2005,06,19,15,18,22.10
2005,06,19,15,19,22.00
2005,06,19,15,20,22.10
2005,06,19,15,21,22.10
2005,06,19,15,22,22.10
2005,06,19,15,23,22.00
2005,06,19,15,24,22.00
2005,06,19,15,25,22.00
2005,06,19,15,26,22.00
2005,06,19,15,27,22.00
2005,06,19,15,28,22.00
2005,06,19,15,29,21.90
2005,06,19,15,30,21.80
2005,06,19,15,31,21.80
2005,06,19,15,32,21.80
2005,06,19,15,33,21.80
2005,06,19,15,34,21.70
2005,06,19,15,35,21.70
2005,06,19,15,36,21.70
2005,06,19,15,37,21.70
2005,06,19,15,38,21.70
2005,06,19,15,39,21.70
2005,06,19,15,40,21.70
2005,06,19,15,41,21.70
2005,06,19,15,42,21.70
2005,06,19,15,43,21.70
2005,06,19,15,44,21.80
2005,06,19,15,45,21.90
2005,06,19,15,46,22.00
2005,06,19,15,47,22.00
2005,06,19,15,48,22.10
2005,06,19,15,49,22.20
2005,06,19,15,50,22.20
2005,06,19,15,51,22.20
2005,06,19,15,52,22.00
2005,06,19,15,53,22.00
2005,06,19,15,54,22.00
2005,06,19,15,55,21.90
2005,06,19,15,56,21.90
2005,06,19,15,57,21.80
2005,06,19,15,58,21.80
2005,06,19,15,59,21.80
2005,06,19,16,00,21.90
2005,06,19,16,01,21.90
2005,06,19,16,02,21.90
2005,06,19,16,03,22.00
2005,06,19,16,04,22.00
2005,06,19,16,05,22.10
2005,06,19,16,06,22.20
2005,06,19,16,07,22.20
2005,06,19,16,08,22.20
2005,06,19,16,09,22.20
2005,06,19,16,10,22.20
2005,06,19,16,11,22.20
2005,06,19,16,12,22.20
2005,06,19,16,13,22.20
2005,06,19,16,14,22.20
2005,06,19,16,15,22.20
2005,06,19,16,16,22.20
2005,06,19,16,17,22.20
2005,06,19,16,18,22.20
2005,06,19,16,19,22.20
2005,06,19,16,20,22.20
2005,06,19,16,21,22.20
2005,06,19,16,22,22.20
2005,06,19,16,23,22.20
2005,06,19,16,24,22.10
2005,06,19,16,25,22.10
2005,06,19,16,26,22.00
2005,06,19,16,27,22.00
2005,06,19,16,28,22.00
2005,06,19,16,29,21.90
2005,06,19,16,30,21.90
2005,06,19,16,31,22.00
2005,06,19,16,32,22.00
2005,06,19,16,33,22.00
2005,06,19,16,34,22.00
2005,06,19,16,35,21.90
2005,06,19,16,36,21.90
2005,06,19,16,37,21.90
2005,06,19,16,38,21.90
2005,06,19,16,39,21.90
2005,06,19,16,40,21.90
2005,06,19,16,41,22.00
2005,06,19,16,42,22.00
2005,06,19,16,43,22.00
2005,06,19,16,44,22.10
2005,06,19,16,45,22.10
2005,06,19,16,46,22.10
2005,06,19,16,47,22.20
2005,06,19,16,48,22.20
2005,06,19,16,49,22.20
2005,06,19,16,50,22.20
2005,06,19,16,51,22.10
2005,06,19,16,52,22.00
2005,06,19,16,53,22.00
2005,06,19,16,54,21.90
2005,06,19,16,55,22.00
2005,06,19,16,56,22.00
2005,06,19,16,57,22.10
2005,06,19,16,58,22.20
2005,06,19,16,59,22.30
2005,06,19,17,00,22.30
2005,06,19,17,01,22.20
2005,06,19,17,02,22.20
2005,06,19,17,03,22.10
2005,06,19,17,04,22.10
2005,06,19,17,05,22.10
2005,06,19,17,06,22.10
2005,06,19,17,07,22.10
2005,06,19,17,08,22.20
2005,06,19,17,09,22.30
2005,06,19,17,10,22.30
2005,06,19,17,11,22.10
2005,06,19,17,12,22.00
2005,06,19,17,13,21.90
2005,06,19,17,14,22.00
2005,06,19,17,15,22.10
2005,06,19,17,16,22.10
2005,06,19,17,17,22.10
2005,06,19,17,18,22.10
2005,06,19,17,19,22.10